Regional Weather Roundup
Issued by NWS Charleston, SC

Current Version | Previous Version | Text Only | Print | Product List | Glossary Off
Versions: 1 2 3 4 5 6 7 8 9 10 11 12 13 14 15 16 17 18 19 20 21 22 23 24 25 26 27 28 29 30 31 32 33 34 35 36 37 38 39 40 41 42 43 44 45 46 47 48 49 50

000
ASUS42 KCHS 251727
RWRCHS

Regional Weather Roundup
National Weather Service Charleston SC
100 PM EDT WED APR 25 2018

NOTE: "fair" indicates few or no clouds below 12,000 feet with no
significant weather and/or obstructions to visibility.

Not all stations are quality controlled. Use data with caution,
especially dewpoint observations.

SCZ027-030-031-034>040-042>050-251800-
...Southeast South Carolina...

CITY           SKY/WX    TMP DP  RH WIND       PRES   REMARKS
N Charleston   FAIR      75  55  49 W14       29.81F
Waterfront Prk   N/A     72  56  57 CALM      29.66F
Mount Pleasant FAIR      75  57  53 W8G16     29.81S
Johns Island   FAIR      77  55  47 W13       29.81F
Pinopolis        N/A     70  57  64 W7        29.74S
Moncks Corner  PTSUNNY   73  54  49 W6        29.80F
Summerville    FAIR      75  55  50 W6        29.81F
Beaufort MCAS  FAIR      76  55  48 W14       29.82F
Beaufort Arpt  FAIR      77  54  44 W14       29.82F
Hilton Head Is SUNNY     75  55  50 SW13      29.85F
Walterboro     FAIR      73  54  49 W13G20    29.82F
Allendale      FAIR      73  55  53 CALM      29.82F

...Southern Midlands and Pee Dee...

CITY           SKY/WX    TMP DP  RH WIND       PRES   REMARKS
Georgetown     FAIR      73  52  46 W10G18    29.80F
Kingstree      PTSUNNY   72  54  53 SW9       29.79F
Orangeburg     FAIR      73  54  51 W12G18    29.81F
Barnwell       NOT AVBL
Aiken          PTSUNNY   73  54  49 W10       29.85F
Manning        FAIR      70  52  52 W6        29.80S
Columbia       FAIR      75  55  49 NW9       29.80F
Sumter         FAIR      73  54  50 W10       29.77F
Florence       PTSUNNY   73  55  53 W10       29.78S
Myrtle Beach   PTSUNNY   71  59  65 S14       29.79F
N Myrtle Beach PTSUNNY   68  59  73 S16       29.78S

$$

GAZ063-065-086>088-099>101-113>116-118-119-134>141-150-251800-
...Southeast Georgia...

CITY           SKY/WX    TMP DP  RH WIND       PRES   REMARKS
Savannah Arpt  FAIR      77  54  44 W18G26    29.84F
Hunter AAF     FAIR      77  54  44 W15G26    29.81
Fort Stewart   FAIR      75  54  46 W14G22    29.83F
Statesboro     CLOUDY    75  50  41 W15       29.85F
Sylvania       PTSUNNY   73  58  59 NW10G16   29.85F
Claxton        FAIR      75  56  52 SW10G20   29.86F

...CSRA, Central and far Southeast Georgia...

CITY           SKY/WX    TMP DP  RH WIND       PRES   REMARKS
Thomson        PTSUNNY   72  52  50 N9        29.89F
Augusta-Bush   FAIR      76  55  48 W13       29.83F
Augusta-Daniel PTSUNNY   74  54  49 VRB6      29.84F
Swainsboro     PTSUNNY   72  55  56 W13G22    29.87F
Vidalia        PTSUNNY   72  57  60 W8G16     29.88F
Eastman        PTSUNNY   73  45  35 W9G20     29.92F
Hazlehurst     FAIR      76  49  38 W7G17     29.87F
Alma           FAIR      76  54  46 W10       29.89F
Waycross       FAIR      77  50  38 W9G20     29.89F
Jesup          FAIR      77  54  44 W10G18    29.88F
Baxley         FAIR      73  52  46 W13G18    29.88F
Brunswick      PTSUNNY   75  52  43 W14G21    29.88F
Saint Simons   FAIR      76  56  49 W12G18    29.87F

$$

SCZ027-028-034-036>038-045-046-048>050-GAZ119-141-251800-
...Lake and Supplemental Coastal Observations...

STATION/POSITION TIME  TEMP    WIND        PRES    WAVE   SWELL
                       AIR SEA DIR/SP/G            HT/PER HT/PER/DIR
                 (UTC) (F)     (DEG/KT/KT) (MB)    (FT/S) (FT/S/D)
Winyah Bay       1645   72     280/  7     1009.0S
Lake Murray      1620   69     300/  4/  8 1008.8
ACE Basin NERRS  1645   74     350/  4       N/A
Fort Pulaski     1700   72 67  280/ 11/ 14 1010.7
Sapelo Island    1700   74     260/ 12     1011.0

$$

ANZ835-935-AMZ111-154-330-350-352-354-370-450-454-472-251800-
...C-MAN and Buoy Observations...

STATION/POSITION TIME  TEMP    WIND        PRES    WAVE   SWELL
                       AIR SEA DIR/SP/G            HT/PER HT/PER/DIR
                 (UTC) (F)     (DEG/KT/KT) (MB)    (FT/S) (FT/S/D)
Buoy 41004       1710      69  240/ 16/ 17 1010.2
Buoy 41008       1650   66 66  200/ 12/ 14 1011.4F   3/ 8   3/ 70/ 8
Folly Beach CMAN 1700   67     200/ 14/ 17 1010.2F
Capers Nearshore 1708   66 66  230/ 14/ 19 1009.8F
Fripp Nearshore  1708   67 66  210/ 10/ 16 1009.9F


STATION/POSITION TIME  TEMP    WIND        PRES    WAVE   SWELL
                       AIR SEA DIR/SP/G            HT/PER HT/PER/DIR
                 (UTC) (F)     (DEG/KT/KT) (MB)    (FT/S) (FT/S/D)
5E St. Marys GA  1700      69                N/A     2/ 9   2/ 80/11
Frying Pan Buoy  1710   67 71  230/ 16/ 19 1009.0
Buoy 41025       1710   70 70  230/ 16/ 21 1007.9
Cape Lookout NC  1700          220/ 13/ 17 1007.7F
Buoy 41002       1710   73 73  220/ 17/ 23 1009.8
Buoy 41010       1710   74 75  270/ 14/ 17 1013.7
St Augustine FL  1700   75 68  260/  8/ 13 1013.5F


$$



USA.gov is the U.S. government's official web portal to all federal, state and local government web resources and services.